Torna al catalogo

NOAA 16 DEB

AttivoPO
NORAD 41256·DEBRIS·🇺🇸 United States

Lanciato Sep 21, 2000 da Vandenberg Space Force Base

Loading…

Prossimi Passaggi (prossime 24 ore)

TLE

AggiornatoSource: Space-Track

Epoca: Sep 13, 2026, 05:46 UTC

1 41256U 00055FG  26256.24080369  .00006894  00000-0  14779-2 0  9998
2 41256  99.0800 172.6935 0009922 251.1052 108.9069 14.58994928557017

Traccia NOAA 16 DEB in tempo reale con AllMySat

Download on the App Store